Tiempo cada hora Gogolewko

Hoy, 25 Junio, Viernes

Tiempo Temperatura Precipitaciones Viento Presión Humedad
00:00 +16°C° 0.1 mm 2 mps 754 mmHg 97%
01:00 +16°C° 0.1 mm 2 mps 754 mmHg 98%
02:00 +16°C° 0 mm 2 mps 754 mmHg 97%
03:00 +14°C° 0 mm 3 mps 754 mmHg 97%
04:00 +14°C° 0 mm 3 mps 754 mmHg 97%
05:00 +16°C° 0 mm 3 mps 754 mmHg 91%
06:00 +17°C° 0 mm 4 mps 754 mmHg 85%
07:00 +18°C° 0 mm 4 mps 755 mmHg 80%
08:00 +19°C° 0 mm 4 mps 755 mmHg 73%
09:00 +20°C° 0 mm 3 mps 755 mmHg 65%
10:00 +22°C° 0 mm 3 mps 755 mmHg 58%
11:00 +22°C° 0.1 mm 3 mps 755 mmHg 59%
12:00 +22°C° 0.1 mm 3 mps 755 mmHg 60%
13:00 +22°C° 0.1 mm 3 mps 755 mmHg 60%
14:00 +21°C° 0.2 mm 3 mps 755 mmHg 65%
15:00 +20°C° 0.2 mm 3 mps 755 mmHg 69%
16:00 +20°C° 0.2 mm 3 mps 755 mmHg 73%
17:00 +19°C° 0 mm 3 mps 755 mmHg 75%
18:00 +19°C° 0 mm 3 mps 755 mmHg 77%
19:00 +18°C° 0 mm 2 mps 755 mmHg 79%
20:00 +17°C° 0 mm 2 mps 755 mmHg 84%
21:00 +16°C° 0 mm 2 mps 755 mmHg 90%
22:00 +15°C° 0 mm 2 mps 756 mmHg 95%
23:00 +14°C° 0 mm 2 mps 756 mmHg 95%

Mañana, 26 Junio, Sábado

Tiempo Temperatura Precipitaciones Viento Presión Humedad
00:00 +14°C° 0 mm 2 mps 756 mmHg 96%
01:00 +14°C° 0 mm 2 mps 756 mmHg 96%
02:00 +14°C° 0 mm 2 mps 756 mmHg 97%
03:00 +13°C° 0 mm 2 mps 756 mmHg 97%
04:00 +13°C° 0 mm 2 mps 756 mmHg 97%
05:00 +14°C° 0 mm 3 mps 756 mmHg 89%
06:00 +17°C° 0 mm 3 mps 756 mmHg 81%
07:00 +18°C° 0 mm 4 mps 756 mmHg 74%
08:00 +20°C° 0 mm 4 mps 756 mmHg 66%
09:00 +21°C° 0 mm 4 mps 757 mmHg 59%
10:00 +22°C° 0 mm 4 mps 757 mmHg 52%
11:00 +22°C° 0 mm 4 mps 757 mmHg 51%
12:00 +23°C° 0 mm 4 mps 756 mmHg 49%
13:00 +23°C° 0 mm 4 mps 756 mmHg 48%
14:00 +23°C° 0 mm 4 mps 756 mmHg 49%
15:00 +23°C° 0 mm 4 mps 756 mmHg 49%
16:00 +22°C° 0 mm 4 mps 756 mmHg 50%
17:00 +21°C° 0 mm 4 mps 756 mmHg 55%
18:00 +20°C° 0 mm 3 mps 756 mmHg 61%
19:00 +19°C° 0 mm 3 mps 756 mmHg 67%
20:00 +17°C° 0 mm 2 mps 756 mmHg 75%
21:00 +16°C° 0 mm 2 mps 757 mmHg 84%
22:00 +14°C° 0 mm 2 mps 757 mmHg 92%
23:00 +14°C° 0 mm 2 mps 757 mmHg 93%

Pasado mañana, 27 Junio, Domingo

Tiempo Temperatura Precipitaciones Viento Presión Humedad
00:00 +13°C° 0 mm 2 mps 757 mmHg 93%
01:00 +13°C° 0 mm 2 mps 757 mmHg 93%
02:00 +13°C° 0 mm 2 mps 757 mmHg 93%
03:00 +13°C° 0 mm 2 mps 757 mmHg 93%
04:00 +13°C° 0 mm 2 mps 757 mmHg 92%
05:00 +15°C° 0 mm 2 mps 757 mmHg 84%
06:00 +17°C° 0 mm 2 mps 757 mmHg 76%
07:00 +19°C° 0 mm 3 mps 756 mmHg 67%
08:00 +20°C° 0 mm 3 mps 756 mmHg 62%
09:00 +22°C° 0 mm 3 mps 757 mmHg 56%
10:00 +24°C° 0 mm 3 mps 757 mmHg 50%
11:00 +25°C° 0 mm 3 mps 756 mmHg 48%
12:00 +25°C° 0 mm 3 mps 756 mmHg 45%
13:00 +26°C° 0 mm 4 mps 756 mmHg 42%
14:00 +26°C° 0 mm 3 mps 756 mmHg 44%
15:00 +25°C° 0 mm 3 mps 756 mmHg 47%
16:00 +25°C° 0 mm 3 mps 756 mmHg 49%
17:00 +24°C° 0 mm 3 mps 756 mmHg 55%
18:00 +22°C° 0 mm 3 mps 756 mmHg 60%
19:00 +21°C° 0 mm 2 mps 756 mmHg 66%
20:00 +19°C° 0 mm 2 mps 756 mmHg 73%
21:00 +18°C° 0 mm 1 mps 756 mmHg 80%
22:00 +16°C° 0 mm 1 mps 756 mmHg 87%
23:00 +15°C° 0 mm 1 mps 756 mmHg 88%

28 Junio, Lunes

Tiempo Temperatura Precipitaciones Viento Presión Humedad
00:00 +15°C° 0 mm 1 mps 756 mmHg 88%
01:00 +14°C° 0 mm 1 mps 756 mmHg 89%
02:00 +15°C° 0 mm 1 mps 756 mmHg 88%
03:00 +15°C° 0 mm 1 mps 756 mmHg 87%
04:00 +15°C° 0 mm 1 mps 756 mmHg 86%
05:00 +18°C° 0 mm 1 mps 756 mmHg 78%
06:00 +20°C° 0 mm 1 mps 756 mmHg 70%
07:00 +21°C° 0 mm 2 mps 756 mmHg 62%
08:00 +23°C° 0 mm 2 mps 756 mmHg 57%
09:00 +25°C° 0 mm 2 mps 756 mmHg 51%
10:00 +26°C° 0 mm 2 mps 756 mmHg 46%
11:00 +27°C° 0 mm 2 mps 756 mmHg 43%
12:00 +28°C° 0 mm 2 mps 756 mmHg 41%
13:00 +28°C° 0 mm 3 mps 756 mmHg 39%
14:00 +28°C° 0 mm 3 mps 756 mmHg 39%
15:00 +28°C° 0 mm 3 mps 755 mmHg 40%
16:00 +28°C° 0 mm 3 mps 755 mmHg 40%
17:00 +27°C° 0 mm 3 mps 755 mmHg 47%
18:00 +25°C° 0 mm 2 mps 755 mmHg 54%
19:00 +24°C° 0 mm 2 mps 755 mmHg 62%
20:00 +21°C° 0 mm 2 mps 755 mmHg 67%
21:00 +21°C° 0 mm 1 mps 755 mmHg 73%
22:00 +19°C° 0 mm 1 mps 755 mmHg 79%
23:00 +18°C° 0 mm 2 mps 755 mmHg 80%

29 Junio, Martes

Tiempo Temperatura Precipitaciones Viento Presión Humedad
00:00 +18°C° 0 mm 2 mps 754 mmHg 81%
01:00 +17°C° 0 mm 2 mps 754 mmHg 83%
02:00 +17°C° 0 mm 2 mps 754 mmHg 83%
03:00 +17°C° 0 mm 2 mps 754 mmHg 83%
04:00 +18°C° 0 mm 1 mps 754 mmHg 83%
05:00 +20°C° 0 mm 2 mps 753 mmHg 74%
06:00 +23°C° 0 mm 2 mps 753 mmHg 65%
07:00 +25°C° 0 mm 2 mps 753 mmHg 57%
08:00 +27°C° 0 mm 3 mps 753 mmHg 51%
09:00 +28°C° 0 mm 3 mps 753 mmHg 46%
10:00 +30°C° 0 mm 3 mps 753 mmHg 41%
11:00 +29°C° 0 mm 3 mps 752 mmHg 43%
12:00 +29°C° 0 mm 3 mps 752 mmHg 45%
13:00 +29°C° 0 mm 3 mps 752 mmHg 47%
14:00 +28°C° 0.2 mm 3 mps 752 mmHg 52%
15:00 +28°C° 0.2 mm 2 mps 752 mmHg 56%
16:00 +27°C° 0.2 mm 2 mps 752 mmHg 61%
17:00 +26°C° 0.1 mm 2 mps 751 mmHg 64%
18:00 +25°C° 0.1 mm 2 mps 751 mmHg 67%
19:00 +25°C° 0.1 mm 1 mps 751 mmHg 71%
20:00 +23°C° 0 mm 2 mps 751 mmHg 73%
21:00 +21°C° 0 mm 2 mps 751 mmHg 76%
22:00 +20°C° 0 mm 2 mps 751 mmHg 78%
23:00 +19°C° 0.2 mm 2 mps 751 mmHg 81%

30 Junio, Miércoles

Tiempo Temperatura Precipitaciones Viento Presión Humedad
00:00 +18°C° 0.2 mm 2 mps 751 mmHg 83%
01:00 +17°C° 0.2 mm 2 mps 751 mmHg 86%
02:00 +17°C° 0 mm 2 mps 751 mmHg 86%
03:00 +17°C° 0 mm 2 mps 751 mmHg 86%
04:00 +18°C° 0 mm 1 mps 751 mmHg 86%
05:00 +18°C° 0 mm 2 mps 751 mmHg 79%
06:00 +19°C° 0 mm 2 mps 751 mmHg 72%
07:00 +20°C° 0 mm 3 mps 751 mmHg 65%
08:00 +22°C° 0 mm 3 mps 751 mmHg 61%
09:00 +23°C° 0 mm 4 mps 751 mmHg 56%
10:00 +25°C° 0 mm 4 mps 751 mmHg 52%
11:00 +25°C° 0 mm 4 mps 751 mmHg 52%
12:00 +26°C° 0 mm 5 mps 751 mmHg 52%
13:00 +26°C° 0 mm 5 mps 752 mmHg 52%
14:00 +25°C° 0 mm 5 mps 752 mmHg 53%
15:00 +25°C° 0 mm 5 mps 752 mmHg 54%
16:00 +23°C° 0 mm 5 mps 752 mmHg 56%
17:00 +22°C° 0 mm 4 mps 752 mmHg 58%
18:00 +21°C° 0 mm 4 mps 752 mmHg 60%
19:00 +19°C° 0 mm 3 mps 753 mmHg 62%
20:00 +18°C° 0 mm 3 mps 753 mmHg 71%
21:00 +16°C° 0 mm 2 mps 753 mmHg 81%
22:00 +14°C° 0 mm 2 mps 754 mmHg 91%
23:00 +14°C° 0 mm 1 mps 754 mmHg 92%
Mostrar más

Necesitamos Su Consentimiento

Meteoprog y nuestros Proveedores de Servicios pueden almacenar y acceder a sus datos personales como cookies, identificadores de dispositivo u otras tecnologías similares de su dispositivo y procesar dichos datos para personalizar contenido y anuncios, además de ofrecer funciones de redes sociales y analizar el tráfico.

  • Almacenar y/o acceder a información en su dispositivo

    Se puede almacenar o acceder a cookies, identificadores de dispositivo u otra información de su dispositivo para los fines anteriormente indicados.

  • Anuncios y contenido personalizados, medición de anuncios y contenido, percepciones del público, y desarrollo de productos

    Los anuncios y el contenido pueden personalizarse en base a su perfil. Se pueden añadir más datos para personalizar mejor los anuncios y contenidos. Se puede medir el rendimiento de los anuncios y contenidos. Se puede obtener la percepción sobre el público que ha visto los anuncios y contenidos. Dichos datos pueden usarse para desarrollar o mejorar la experiencia del usuario, sistemas y software.

Al hacer clic en ‘Estoy De Acuerdo’ usted permitirá el uso de las cookies, identificadores de dispositivo, balizas web u otras tecnologías similares indicadas. Su configuración puede cambiarse desde el navegador de su dispositivo.

Para ciertos fines, los intereses legítimos pueden ser considerados por encima del consentimiento. Puede leer más sobre ello en nuestra Política de Privacidad y Cookies.